Home > Weather > Bludenz > Past weeks

Flag for Austria Past Weather in Bludenz, Vorarlberg, Austria — Yesterday and Last 2 Weeks

Now
65 °F

Fog.


Feels Like: 65 °F
Forecast: 63 / 81 °F
Wind: 1 mph from Northeast

Location: Vaduz

Current Time: Jul 26, 2016 at 12:06:01 AM

Latest Report: Jul 25, 2016 at 11:00 PM


Visibility: 4 mi

Pressure: 30.12 "Hg (28.20 "Hg at 563m altitude)

Humidity: 95%

Dew Point: 64 °F

Location of BludenzLocation

Past Weather in Bludenz — Graph

°F

Bludenz Temperature Yesterday

Maximum temperature yesterday: 79 °F (at 4:00 PM)
Minimum temperature yesterday: 62 °F (at 2:00 AM)
Average temperature yesterday: 69 °F

High & Low Weather Summary for the Past Weeks

 TemperatureHumidityPressure
High88 °F (Jul 20, 5:00 PM)96% (Jul 16, 4:00 AM)30.39 "Hg (Jul 16, 4:00 AM)
Low47 °F (Jul 16, 5:00 AM)39% (Jul 16, 5:00 PM)29.82 "Hg (Jul 11, 4:00 PM)
Average67 °F74%30.08 "Hg
* Reported Jul 10 10:00 PM — Jul 25 10:00 PM, Bludenz, Weather by CustomWeather, © 2016

Note: Actual official high and low records may vary slightly from our data, if they occured in-between our weather recording intervals... More about our weather records

Advertising

Bludenz Weather History for the Previous 24 Hours

Scroll right to see more
 ConditionsComfort  
Time TempWeatherWind HumidityBarometerVisibility
10:00 PM
Mon, Jul 25
67 °FMild.1 mph93%30.12 "HgN/A
9:00 PM68 °FMild.1 mph94%30.10 "HgN/A
8:00 PM70 °FFog.2 mph88%30.09 "Hg9 mi
7:00 PM70 °FMild.1 mph88%30.08 "HgN/A
6:00 PM72 °FMild.2 mph77%30.05 "HgN/A
5:00 PM77 °FFog.3 mph67%30.02 "Hg7 mi
4:00 PM79 °FWarm.6 mph62%30.02 "HgN/A
3:00 PM76 °FMild.5 mph66%30.03 "HgN/A
2:00 PM76 °FMild.7 mph68%30.04 "HgN/A
1:00 PM76 °FMild.6 mph74%30.06 "HgN/A
12:00 PM72 °FMild.2 mph77%30.08 "HgN/A
11:00 AM68 °FFog.No wind89%30.10 "Hg7 mi
10:00 AM67 °FMild.No wind90%30.11 "HgN/A
9:00 AM65 °FMild.2 mph93%30.12 "HgN/A
8:00 AM64 °FOvercast.No wind95%30.13 "Hg6 mi
7:00 AM64 °FMild.No wind95%30.12 "HgN/A
6:00 AM63 °FMild.No wind95%30.12 "HgN/A
5:00 AM64 °FFog.1 mph93%30.11 "Hg4 mi
4:00 AM65 °FMild.3 mph92%30.11 "HgN/A
3:00 AM65 °FMild.5 mph92%30.11 "HgN/A
2:00 AM62 °FFog.No wind96%30.12 "Hg4 mi
1:00 AM64 °FMild.1 mph96%30.12 "HgN/A
12:00 AM64 °FMild.1 mph96%30.12 "HgN/A
Weather by CustomWeather, © 2016

See weather overviewHow to use our weather pages